When you browse on this site, cookies collect data to enhance your experience and personalize the content and advertising you see.
Visit our Privacy Policy to learn more. By continuing to use the site, you agree to this use of cookies and data.
  • In Switzerland
  • List of Countries
  • For 7 days
  • Water Temperature
  • Satellite Maps
  • Weather Map
  • Weather Widgets
  • user-avatar
    Login

    Hourly Weather Sylhet

    Today, 25 April, Thursday

    Time Temperature Precipitation Wind Pressure Humidity
    00:00 +30°C° 0 mm 1 mps 755 mmHg 46%
    01:00 +29°C° 0 mm 1 mps 755 mmHg 48%
    02:00 +29°C° 0 mm 1 mps 755 mmHg 49%
    03:00 +28°C° 0 mm 1 mps 755 mmHg 51%
    04:00 +28°C° 0 mm 1 mps 755 mmHg 53%
    05:00 +28°C° 0 mm 1 mps 755 mmHg 56%
    06:00 +27°C° 0 mm 1 mps 755 mmHg 58%
    07:00 +30°C° 0 mm 1 mps 756 mmHg 52%
    08:00 +32°C° 0 mm 2 mps 756 mmHg 46%
    09:00 +35°C° 0 mm 2 mps 756 mmHg 40%
    10:00 +37°C° 0 mm 1 mps 756 mmHg 36%
    11:00 +40°C° 0 mm 1 mps 756 mmHg 32%
    12:00 +39°C° 0 mm 0 mps 755 mmHg 28%
    13:00 +42°C° 0 mm 1 mps 754 mmHg 27%
    14:00 +41°C° 0 mm 2 mps 754 mmHg 26%
    15:00 +41°C° 0 mm 2 mps 753 mmHg 25%
    16:00 +40°C° 0 mm 2 mps 753 mmHg 28%
    17:00 +39°C° 0 mm 2 mps 752 mmHg 32%
    18:00 +37°C° 0 mm 1 mps 752 mmHg 35%
    19:00 +35°C° 0 mm 1 mps 753 mmHg 36%
    20:00 +34°C° 0 mm 1 mps 753 mmHg 38%
    21:00 +33°C° 0 mm 1 mps 754 mmHg 39%
    22:00 +32°C° 0 mm 1 mps 754 mmHg 40%
    23:00 +32°C° 0 mm 1 mps 754 mmHg 42%

    Tomorrow, 26 April, Friday

    Time Temperature Precipitation Wind Pressure Humidity
    00:00 +31°C° 0 mm 1 mps 754 mmHg 43%
    01:00 +30°C° 0 mm 1 mps 754 mmHg 45%
    02:00 +30°C° 0 mm 1 mps 754 mmHg 46%
    03:00 +29°C° 0 mm 2 mps 753 mmHg 48%
    04:00 +29°C° 0 mm 2 mps 753 mmHg 50%
    05:00 +29°C° 0 mm 2 mps 754 mmHg 53%
    06:00 +28°C° 0 mm 1 mps 754 mmHg 56%
    07:00 +31°C° 0 mm 1 mps 754 mmHg 50%
    08:00 +33°C° 0 mm 1 mps 754 mmHg 45%
    09:00 +36°C° 0 mm 1 mps 755 mmHg 40%
    10:00 +37°C° 0 mm 1 mps 754 mmHg 36%
    11:00 +40°C° 0 mm 1 mps 754 mmHg 32%
    12:00 +42°C° 0 mm 1 mps 754 mmHg 28%
    13:00 +42°C° 0 mm 2 mps 753 mmHg 27%
    14:00 +42°C° 0 mm 2 mps 752 mmHg 26%
    15:00 +43°C° 0 mm 3 mps 751 mmHg 24%
    16:00 +42°C° 0 mm 3 mps 751 mmHg 28%
    17:00 +40°C° 0 mm 2 mps 751 mmHg 32%
    18:00 +38°C° 0 mm 2 mps 751 mmHg 36%
    19:00 +37°C° 0 mm 2 mps 752 mmHg 38%
    20:00 +35°C° 0 mm 1 mps 753 mmHg 39%
    21:00 +34°C° 0 mm 1 mps 753 mmHg 40%
    22:00 +33°C° 0 mm 1 mps 754 mmHg 42%
    23:00 +33°C° 0 mm 1 mps 754 mmHg 43%

    Day after tomorrow, 27 April, Saturday

    Time Temperature Precipitation Wind Pressure Humidity
    00:00 +32°C° 0 mm 1 mps 754 mmHg 44%
    01:00 +31°C° 0 mm 1 mps 754 mmHg 47%
    02:00 +31°C° 0 mm 2 mps 753 mmHg 49%
    03:00 +30°C° 0 mm 2 mps 753 mmHg 52%
    04:00 +30°C° 0 mm 2 mps 753 mmHg 56%
    05:00 +30°C° 0 mm 1 mps 754 mmHg 60%
    06:00 +29°C° 0 mm 1 mps 754 mmHg 64%
    07:00 +31°C° 0 mm 1 mps 755 mmHg 59%
    08:00 +33°C° 0 mm 1 mps 755 mmHg 54%
    09:00 +35°C° 0 mm 1 mps 756 mmHg 48%
    10:00 +37°C° 0 mm 1 mps 755 mmHg 43%
    11:00 +39°C° 0 mm 1 mps 755 mmHg 38%
    12:00 +41°C° 0 mm 1 mps 754 mmHg 33%
    13:00 +41°C° 0 mm 1 mps 753 mmHg 32%
    14:00 +41°C° 0 mm 2 mps 752 mmHg 32%
    15:00 +41°C° 0 mm 2 mps 752 mmHg 31%
    16:00 +39°C° 0 mm 2 mps 751 mmHg 36%
    17:00 +37°C° 0 mm 3 mps 751 mmHg 41%
    18:00 +36°C° 0 mm 4 mps 751 mmHg 46%
    19:00 +35°C° 0 mm 3 mps 752 mmHg 48%
    20:00 +34°C° 0 mm 3 mps 753 mmHg 50%
    21:00 +33°C° 0 mm 3 mps 753 mmHg 52%
    22:00 +31°C° 0 mm 3 mps 753 mmHg 54%
    23:00 +31°C° 0 mm 3 mps 753 mmHg 57%

    28 April, Sunday

    Time Temperature Precipitation Wind Pressure Humidity
    00:00 +30°C° 0 mm 2 mps 753 mmHg 60%
    01:00 +30°C° 0.3 mm 2 mps 753 mmHg 64%
    02:00 +29°C° 0.3 mm 1 mps 753 mmHg 69%
    03:00 +28°C° 0.3 mm 1 mps 753 mmHg 73%
    04:00 +28°C° 1 mm 1 mps 754 mmHg 77%
    05:00 +27°C° 1 mm 2 mps 754 mmHg 81%
    06:00 +27°C° 1 mm 2 mps 754 mmHg 85%
    07:00 +29°C° 1.4 mm 2 mps 755 mmHg 80%
    08:00 +30°C° 1.4 mm 3 mps 755 mmHg 75%
    09:00 +33°C° 1.4 mm 3 mps 756 mmHg 70%
    10:00 +34°C° 0.1 mm 3 mps 755 mmHg 64%
    11:00 +36°C° 0.1 mm 2 mps 755 mmHg 57%
    12:00 +37°C° 0.1 mm 2 mps 755 mmHg 50%
    13:00 +38°C° 0.2 mm 2 mps 754 mmHg 49%
    14:00 +38°C° 0.2 mm 2 mps 753 mmHg 48%
    15:00 +37°C° 0.2 mm 1 mps 752 mmHg 47%
    16:00 +37°C° 0 mm 2 mps 752 mmHg 52%
    17:00 +36°C° 0 mm 2 mps 751 mmHg 56%
    18:00 +35°C° 0 mm 2 mps 751 mmHg 61%
    19:00 +32°C° 2.5 mm 2 mps 752 mmHg 68%
    20:00 +31°C° 2.5 mm 2 mps 753 mmHg 76%
    21:00 +29°C° 2.5 mm 1 mps 754 mmHg 83%
    22:00 +29°C° 4.6 mm 1 mps 754 mmHg 86%
    23:00 +29°C° 4.6 mm 2 mps 754 mmHg 88%

    29 April, Monday

    Time Temperature Precipitation Wind Pressure Humidity
    00:00 +28°C° 4.6 mm 2 mps 754 mmHg 90%
    01:00 +28°C° 4.6 mm 2 mps 754 mmHg 91%
    02:00 +28°C° 4.6 mm 1 mps 754 mmHg 92%
    03:00 +28°C° 4.6 mm 1 mps 753 mmHg 93%
    04:00 +27°C° 4.3 mm 1 mps 754 mmHg 93%
    05:00 +27°C° 4.3 mm 2 mps 754 mmHg 93%
    06:00 +27°C° 4.3 mm 2 mps 754 mmHg 93%
    07:00 +28°C° 4.8 mm 2 mps 755 mmHg 90%
    08:00 +29°C° 4.8 mm 2 mps 755 mmHg 87%
    09:00 +29°C° 4.8 mm 2 mps 756 mmHg 84%
    10:00 +31°C° 3 mm 2 mps 755 mmHg 78%
    11:00 +32°C° 3 mm 2 mps 755 mmHg 72%
    12:00 +34°C° 3 mm 2 mps 755 mmHg 67%
    13:00 +35°C° 0.9 mm 2 mps 754 mmHg 64%
    14:00 +35°C° 0.9 mm 2 mps 753 mmHg 62%
    15:00 +36°C° 0.9 mm 2 mps 752 mmHg 59%
    16:00 +34°C° 0.7 mm 2 mps 752 mmHg 66%
    17:00 +33°C° 0.7 mm 3 mps 752 mmHg 74%
    18:00 +30°C° 0.7 mm 4 mps 752 mmHg 81%
    19:00 +29°C° 0.8 mm 4 mps 752 mmHg 83%
    20:00 +29°C° 0.8 mm 4 mps 753 mmHg 86%
    21:00 +28°C° 0.8 mm 4 mps 754 mmHg 89%
    22:00 +27°C° 0.7 mm 3 mps 754 mmHg 90%
    23:00 +27°C° 0.7 mm 3 mps 754 mmHg 91%

    30 April, Tuesday

    Time Temperature Precipitation Wind Pressure Humidity
    00:00 +27°C° 0.7 mm 2 mps 754 mmHg 92%
    01:00 +27°C° 0.5 mm 2 mps 754 mmHg 93%
    02:00 +27°C° 0.5 mm 2 mps 753 mmHg 93%
    03:00 +27°C° 0.5 mm 2 mps 753 mmHg 93%
    04:00 +27°C° 0.7 mm 2 mps 753 mmHg 93%
    05:00 +27°C° 0.7 mm 2 mps 754 mmHg 93%
    06:00 +27°C° 0.7 mm 2 mps 754 mmHg 93%
    07:00 +29°C° 0.5 mm 2 mps 754 mmHg 87%
    08:00 +30°C° 0.5 mm 3 mps 755 mmHg 81%
    09:00 +33°C° 0.5 mm 3 mps 755 mmHg 74%
    10:00 +33°C° 0.3 mm 3 mps 754 mmHg 71%
    11:00 +34°C° 0.3 mm 2 mps 754 mmHg 68%
    12:00 +35°C° 0.3 mm 2 mps 753 mmHg 65%
    13:00 +35°C° 0.8 mm 2 mps 753 mmHg 64%
    14:00 +36°C° 0.8 mm 2 mps 752 mmHg 63%
    15:00 +35°C° 0.8 mm 1 mps 751 mmHg 62%
    16:00 +35°C° 0.8 mm 2 mps 751 mmHg 66%
    17:00 +34°C° 0.8 mm 2 mps 751 mmHg 70%
    18:00 +33°C° 0.8 mm 3 mps 750 mmHg 74%
    19:00 +31°C° 2.3 mm 3 mps 751 mmHg 78%
    20:00 +30°C° 2.3 mm 3 mps 752 mmHg 82%
    21:00 +29°C° 2.3 mm 3 mps 752 mmHg 86%
    22:00 +29°C° 0.9 mm 2 mps 753 mmHg 87%
    23:00 +29°C° 0.9 mm 2 mps 753 mmHg 88%
    Show more